Location: Hoover
(45.1124°N, 103.2678°W)
Time: 04:20:57
(UTC+00:00)

N. Korean satellite - Pass Details

Date: 26 November 2020
Orbit: 453 x 502 km, 97.2° (Epoch: 16 January)

Event Time Altitude Azimuth Distance (km) Brightness Sun altitude
Rises 12:38:18 0° 9° (N) 2,543 10.2 -15.1°
Reaches altitude 10° 12:40:22 10° 6° (N) 1,667 9.2 -14.8°
Maximum altitude 12:43:55 65° 285° (WNW) 538 6.5 -14.2°
Drops below altitude 10° 12:47:30 10° 203° (SSW) 1,680 9.2 -13.6°
Sets 12:49:35 0° 200° (SSW) 2,564 10.2 -13.2°
